Weather History for Gainesville, FL

Change the Weather History Date:

Friday, June 6, 2014

  Actual Average Record
Temperature  
Mean Temperature 80 °F 79 °F  
Max Temperature 91 °F 90 °F 100 °F (1927)
Min Temperature 68 °F 68 °F 58 °F (1958)
Degree Days  
Heating Degree Days 0 0  
Month to date heating degree days 0 0  
Since 1 June heating degree days 0 0  
Since 1 July heating degree days 1098 1218  
Cooling Degree Days 15 14  
Month to date cooling degree days 65 80  
Year to date cooling degree days 566 590  
Since 1 June cooling degree days 65 80  
Growing Degree Days 30 (Base 50)    
Moisture  
Dew Point 70 °F    
Average Humidity 74    
Maximum Humidity 97    
Minimum Humidity 50    
Precipitation  
Precipitation 0.00 in 0.19 in 3.69 in (1968)
Month to date precipitation 0.49 1.10  
Year to date precipitation 21.03 17.09  
Snow  
Snow 0.00 in 0.00 in 0.00 in ()
Month to date snowfall 0.0 0.0  
Since 1 June snowfall 0.0 0.0  
Since 1 July snowfall 0.0 0.0  
Snow Depth 0.00 in    
Sea Level Pressure  
Sea Level Pressure 29.94 in    
Wind  
Wind Speed 8 mph (West)    
Max Wind Speed 17 mph    
Max Gust Speed 23 mph    
Visibility 10 miles    
Events      
T = Trace of Precipitation, MM = Missing Value Source: NWS Daily Summary

Daily Weather History Graph

Daily Weather History Graph

Search for Another Location

Airport:

Trip Planner

Search our weather history database for the weather conditions in past years. The results will help you decide how hot, cold, wet, or windy it might be!

Date:

Astronomy

Jun. 06, 2014 Rise Set
Actual Time 6:28 AM EDT 8:27 PM EDT
Civil Twilight 6:01 AM EDT 8:54 PM EDT
Nautical Twilight 5:28 AM EDT 9:27 PM EDT
Astronomical Twilight 4:53 AM EDT 10:02 PM EDT
Moon 2:12 PM EDT (6/6) 1:50 AM EDT (6/6)
Length of Visible Light 14h 53m
Length of Day
13h 59m
First Quarter, 58% of the Moon is Illuminated
Jun 6
First Quarter
Jun 13
Full
Jun 19
Last Quarter
Jun 27
New
Jul 5
First Quarter

Hourly Weather History & Observations

Time (EDT) Temp. Heat Index Dew Point Humidity Pressure Visibility Wind Dir Wind Speed Gust Speed Precip Events Conditions
12:53 AM 70.0 °F - 66.0 °F 87% 29.95 in 10.0 mi Calm Calm - N/A   Clear
1:53 AM 71.1 °F - 66.9 °F 87% 29.92 in 10.0 mi WSW 5.8 mph - N/A   Clear
2:53 AM 71.1 °F - 68.0 °F 90% 29.90 in 10.0 mi West 6.9 mph - N/A   Clear
3:53 AM 71.1 °F - 68.0 °F 90% 29.89 in 10.0 mi West 6.9 mph - N/A   Clear
4:53 AM 70.0 °F - 66.9 °F 90% 29.91 in 10.0 mi WNW 4.6 mph - N/A   Clear
5:53 AM 69.1 °F - 68.0 °F 96% 29.94 in 9.0 mi NW 4.6 mph - N/A   Clear
6:53 AM 69.1 °F - 68.0 °F 96% 29.97 in 7.0 mi NW 6.9 mph - N/A   Clear
7:21 AM 70.0 °F - 69.1 °F 97% 29.98 in 7.0 mi NW 4.6 mph - N/A   Partly Cloudy
7:53 AM 72.0 °F - 70.0 °F 93% 29.98 in 8.0 mi NW 5.8 mph - N/A   Clear
8:53 AM 77.0 °F - 71.1 °F 82% 29.99 in 10.0 mi NW 5.8 mph - N/A   Clear
9:53 AM 81.0 °F 84.4 °F 70.0 °F 69% 29.99 in 10.0 mi WNW 8.1 mph - N/A   Clear
11:53 AM 86.0 °F 90.7 °F 70.0 °F 59% 29.96 in 10.0 mi Variable 4.6 mph - N/A   Clear
12:53 PM 88.0 °F 93.8 °F 71.1 °F 57% 29.94 in 10.0 mi Variable 5.8 mph - N/A   Scattered Clouds
1:53 PM 88.0 °F 92.1 °F 69.1 °F 53% 29.93 in 10.0 mi Variable 3.5 mph - N/A   Scattered Clouds
2:53 PM 89.1 °F 94.1 °F 70.0 °F 53% 29.91 in 10.0 mi SSW 9.2 mph - N/A   Scattered Clouds
3:53 PM 90.0 °F 96.4 °F 71.1 °F 54% 29.91 in 10.0 mi WSW 10.4 mph - N/A   Partly Cloudy
5:53 PM 89.1 °F 92.9 °F 68.0 °F 50% 29.88 in 10.0 mi SW 6.9 mph - N/A   Mostly Cloudy
6:53 PM 86.0 °F 93.0 °F 73.0 °F 65% 29.89 in 10.0 mi WSW 13.8 mph 21.9 mph N/A   Overcast
7:53 PM 84.0 °F 89.6 °F 72.0 °F 67% 29.93 in 10.0 mi SW 11.5 mph - N/A   Mostly Cloudy
8:53 PM 82.0 °F 86.3 °F 71.1 °F 69% 29.94 in 10.0 mi WSW 12.7 mph - N/A   Overcast
9:53 PM 80.1 °F 83.6 °F 71.1 °F 74% 29.96 in 10.0 mi West 12.7 mph - N/A   Overcast
10:53 PM 79.0 °F - 71.1 °F 77% 29.97 in 10.0 mi West 5.8 mph - N/A   Mostly Cloudy